| time (UTC) | temp C | wind direction | speed KPH | gust KPH | rain 1hr cm | rain 24hr cm | rain mn cm | humidity % | barometer mb |
| 20260510120022 | 7 | 123 | 0.0 | 0.0 | 0.00 | 1.12 | 0.00 | 91 | 1009.6 |
| 20260510114514 | 7 | 124 | 0.0 | 0.0 | 0.00 | 1.14 | 0.00 | 91 | 1009.3 |
| 20260510113029 | 7 | 123 | 0.0 | 0.0 | 0.00 | 1.14 | 0.00 | 91 | 1008.9 |
| 20260510111528 | 7 | 123 | 0.0 | 0.0 | 0.00 | 1.14 | 0.00 | 91 | 1008.5 |
| 20260510110033 | 7 | 123 | 0.0 | 0.0 | 0.00 | 1.14 | 0.00 | 92 | 1008.4 |
| 20260510104521 | 7 | 123 | 0.0 | 0.0 | 0.00 | 1.14 | 0.00 | 92 | 1007.8 |
| 20260510103016 | 7 | 123 | 0.0 | 0.0 | 0.00 | 1.14 | 0.00 | 92 | 1007.5 |
| 20260510101528 | 7 | 123 | 0.0 | 0.0 | 0.00 | 1.14 | 0.00 | 92 | 1007.3 |
| 20260510100027 | 8 | 123 | 0.0 | 0.0 | 0.00 | 1.14 | 0.00 | 92 | 1007.3 |
| 20260510094540 | 8 | 123 | 0.0 | 0.0 | 0.00 | 1.14 | 0.00 | 91 | 1007.0 |
| 20260510093020 | 8 | 123 | 0.0 | 0.0 | 0.00 | 1.14 | 0.00 | 92 | 1006.7 |
| 20260510091522 | 8 | 123 | 0.0 | 0.0 | 0.00 | 1.14 | 0.00 | 92 | 1006.2 |
| 20260510090029 | 8 | 123 | 0.0 | 0.0 | 0.00 | 1.14 | 0.00 | 91 | 1006.1 |
| 20260510084524 | 9 | 123 | 0.0 | 0.0 | 0.00 | 1.30 | 0.00 | 91 | 1006.0 |
| 20260510083023 | 10 | 123 | 0.0 | 0.0 | 0.00 | 1.30 | 0.00 | 91 | 1006.0 |
| 20260510081518 | 10 | 123 | 0.0 | 0.0 | 0.00 | 1.30 | 0.00 | 91 | 1005.9 |
| 20260510080018 | 10 | 123 | 0.0 | 0.0 | 0.00 | 1.30 | 0.00 | 91 | 1005.5 |
| 20260510074529 | 10 | 123 | 0.0 | 0.0 | 0.00 | 1.55 | 0.00 | 91 | 1005.4 |
| 20260510073028 | 11 | 123 | 0.0 | 0.0 | 0.00 | 1.55 | 0.00 | 91 | 1005.0 |
| 20260510071520 | 11 | 123 | 0.0 | 0.0 | 0.00 | 1.55 | 0.00 | 91 | 1004.9 |
| 20260510070022 | 11 | 124 | 0.0 | 0.0 | 0.00 | 1.55 | 0.00 | 90 | 1004.7 |
| 20260510064509 | 11 | 124 | 0.0 | 0.0 | 0.00 | 1.70 | 0.00 | 91 | 1004.6 |
| 20260510063031 | 11 | 124 | 0.0 | 0.0 | 0.00 | 1.70 | 0.00 | 91 | 1004.4 |
| 20260510061526 | 11 | 124 | 0.0 | 0.0 | 0.00 | 1.70 | 0.00 | 91 | 1004.5 |
| 20260510060025 | 11 | 123 | 0.0 | 0.0 | 0.00 | 1.70 | 0.00 | 91 | 1004.5 |
| 20260510054518 | 11 | 124 | 0.0 | 0.0 | 0.00 | 1.91 | 0.00 | 90 | 1003.8 |
| 20260510053036 | 11 | 124 | 0.0 | 0.0 | 0.00 | 1.91 | 0.00 | 90 | 1003.9 |
| 20260510051513 | 11 | 123 | 0.0 | 0.0 | 0.00 | 1.91 | 0.00 | 91 | 1003.4 |
| 20260510050026 | 11 | 124 | 0.0 | 0.0 | 0.00 | 1.91 | 0.00 | 91 | 1003.3 |
| 20260510044521 | 12 | 123 | 0.0 | 0.0 | 0.00 | 2.01 | 0.00 | 91 | 1003.3 |
| 20260510043036 | 12 | 124 | 0.0 | 0.0 | 0.03 | 2.01 | 0.00 | 91 | 1003.4 |
| 20260510041522 | 12 | 124 | 0.0 | 0.0 | 0.08 | 2.01 | 0.00 | 91 | 1003.5 |
| 20260510040019 | 12 | 124 | 0.0 | 0.0 | 0.08 | 2.01 | 0.00 | 91 | 1003.8 |
| 20260510034524 | 12 | 123 | 0.0 | 1.6 | 0.08 | 2.06 | 2.01 | 91 | 1003.7 |
| 20260510033021 | 12 | 124 | 0.0 | 0.0 | 0.13 | 2.03 | 1.98 | 91 | 1003.8 |
| 20260510031523 | 12 | 123 | 0.0 | 0.0 | 0.10 | 1.98 | 1.93 | 91 | 1003.6 |
| 20260510030013 | 12 | 124 | 0.0 | 0.0 | 0.18 | 1.98 | 1.93 | 91 | 1003.5 |
| 20260510024528 | 12 | 124 | 1.6 | 19.3 | 0.18 | 2.11 | 1.93 | 91 | 1003.7 |
| 20260510023027 | 12 | 124 | 0.0 | 0.0 | 0.10 | 2.03 | 1.85 | 90 | 1003.0 |
| 20260510021535 | 12 | 124 | 0.0 | 0.0 | 0.08 | 2.01 | 1.83 | 91 | 1002.7 |
| 20260510020018 | 12 | 123 | 0.0 | 0.0 | 0.00 | 1.93 | 1.75 | 90 | 1002.8 |
| 20260510014519 | 12 | 123 | 0.0 | 0.0 | 0.00 | 2.06 | 1.75 | 90 | 1002.6 |
| 20260510013030 | 12 | 123 | 0.0 | 0.0 | 0.00 | 2.06 | 1.75 | 90 | 1002.4 |
| 20260510011539 | 12 | 123 | 0.0 | 0.0 | 0.00 | 2.06 | 1.75 | 90 | 1002.4 |
| 20260510010024 | 12 | 124 | 0.0 | 0.0 | 0.08 | 2.06 | 1.75 | 90 | 1002.3 |
| 20260510004526 | 12 | 124 | 0.0 | 0.0 | 0.30 | 2.34 | 1.75 | 90 | 1002.3 |
| 20260510003019 | 12 | 123 | 0.0 | 0.0 | 0.84 | 2.34 | 1.75 | 90 | 1002.3 |
| 20260510001514 | 12 | 124 | 0.0 | 0.0 | 0.86 | 2.34 | 1.75 | 90 | 1002.3 |
| 20260510000007 | 12 | 124 | 0.0 | 0.0 | 0.76 | 2.24 | 1.65 | 89 | 1002.8 |
| 20260509234526 | 13 | 123 | 0.0 | 11.3 | 0.56 | 2.11 | 1.42 | 85 | 1002.8 |
| 20260509233019 | 17 | 123 | 0.0 | 6.4 | 0.00 | 1.55 | 0.89 | 66 | 1001.7 |
| 20260509231520 | 19 | 123 | 0.0 | 6.4 | 0.00 | 1.55 | 0.89 | 58 | 1000.1 |
| 20260509230016 | 19 | 123 | 0.0 | 0.0 | 0.00 | 1.55 | 0.89 | 57 | 1000.2 |
| 20260509224510 | 20 | 124 | 0.0 | 0.0 | 0.00 | 1.57 | 0.89 | 57 | 999.8 |
| 20260509223031 | 20 | 124 | 0.0 | 1.6 | 0.00 | 1.57 | 0.89 | 54 | 1000.0 |
| 20260509221524 | 20 | 123 | 0.0 | 6.4 | 0.00 | 1.57 | 0.89 | 54 | 999.8 |
| 20260509220025 | 20 | 123 | 0.0 | 6.4 | 0.00 | 1.57 | 0.89 | 53 | 999.9 |
| 20260509214518 | 20 | 123 | 0.0 | 1.6 | 0.00 | 1.57 | 0.89 | 53 | 999.9 |
| 20260509213025 | 20 | 123 | 0.0 | 0.0 | 0.00 | 1.57 | 0.89 | 53 | 999.9 |
| 20260509211513 | 20 | 123 | 0.0 | 3.2 | 0.00 | 1.57 | 0.89 | 54 | 1000.1 |
| 20260509204525 | 20 | 123 | 0.0 | 0.0 | 0.00 | 1.68 | 0.89 | 56 | 1000.5 |
| 20260509203028 | 20 | 122 | 0.0 | 16.1 | 0.00 | 1.68 | 0.89 | 55 | 1000.8 |
| 20260509201522 | 20 | 124 | 0.0 | 0.0 | 0.00 | 1.68 | 0.89 | 59 | 1001.0 |
| 20260509200021 | 20 | 123 | 0.0 | 0.0 | 0.00 | 1.68 | 0.89 | 60 | 1001.1 |
| 20260509194516 | 19 | 123 | 0.0 | 9.7 | 0.00 | 1.68 | 0.89 | 61 | 1001.3 |
| 20260509193031 | 18 | 123 | 0.0 | 4.8 | 0.00 | 1.68 | 0.89 | 63 | 1001.7 |
| 20260509191537 | 18 | 123 | 0.0 | 4.8 | 0.00 | 1.68 | 0.89 | 61 | 1001.9 |
| 20260509190030 | 18 | 123 | 0.0 | 1.6 | 0.00 | 1.68 | 0.89 | 62 | 1002.0 |
| 20260509184531 | 18 | 123 | 0.0 | 0.0 | 0.00 | 1.70 | 0.89 | 63 | 1002.1 |
| 20260509183020 | 17 | 124 | 0.0 | 0.0 | 0.00 | 1.70 | 0.89 | 67 | 1002.1 |
| 20260509181529 | 17 | 123 | 0.0 | 1.6 | 0.00 | 1.70 | 0.89 | 66 | 1002.3 |
| 20260509180025 | 17 | 124 | 0.0 | 9.7 | 0.00 | 1.70 | 0.89 | 69 | 1002.2 |
| 20260509174625 | 17 | 124 | 0.0 | 8.0 | 0.00 | 1.75 | 0.89 | 68 | 1002.3 |
| 20260509173019 | 17 | 124 | 0.0 | 1.6 | 0.00 | 1.75 | 0.89 | 68 | 1002.4 |
| 20260509171515 | 16 | 124 | 0.0 | 4.8 | 0.00 | 1.75 | 0.89 | 70 | 1001.9 |
| 20260509170011 | 16 | 124 | 0.0 | 0.0 | 0.00 | 1.75 | 0.89 | 73 | 1002.5 |
| 20260509164528 | 16 | 124 | 0.0 | 0.0 | 0.00 | 1.75 | 0.89 | 75 | 1002.8 |
| 20260509163034 | 15 | 123 | 0.0 | 6.4 | 0.00 | 1.75 | 0.89 | 76 | 1002.7 |
| 20260509161516 | 14 | 123 | 0.0 | 0.0 | 0.00 | 1.75 | 0.89 | 80 | 1002.8 |
| 20260509160015 | 15 | 124 | 0.0 | 1.6 | 0.00 | 1.75 | 0.89 | 81 | 1002.8 |
| 20260509154516 | 15 | 123 | 0.0 | 0.0 | 0.00 | 1.75 | 0.89 | 87 | 1002.7 |
| 20260509153042 | 13 | 123 | 0.0 | 0.0 | 0.00 | 1.75 | 0.89 | 91 | 1002.6 |
| 20260509151522 | 12 | 124 | 0.0 | 0.0 | 0.00 | 1.75 | 0.89 | 91 | 1002.7 |
| 20260509150021 | 12 | 123 | 0.0 | 0.0 | 0.00 | 1.75 | 0.89 | 91 | 1002.6 |
| 20260509144514 | 12 | 124 | 0.0 | 0.0 | 0.00 | 1.75 | 0.89 | 90 | 1002.7 |
| 20260509143011 | 11 | 123 | 0.0 | 0.0 | 0.00 | 1.75 | 0.89 | 89 | 1002.7 |
| 20260509141531 | 11 | 124 | 0.0 | 0.0 | 0.00 | 1.75 | 0.89 | 89 | 1002.7 |
| 20260509140024 | 11 | 123 | 0.0 | 0.0 | 0.00 | 1.75 | 0.89 | 89 | 1002.7 |
| 20260509134525 | 11 | 124 | 0.0 | 0.0 | 0.00 | 1.75 | 0.89 | 88 | 1002.7 |
| 20260509133020 | 11 | 123 | 0.0 | 0.0 | 0.00 | 1.75 | 0.89 | 88 | 1002.8 |
| 20260509131517 | 11 | 123 | 0.0 | 0.0 | 0.00 | 1.75 | 0.89 | 88 | 1002.8 |
| 20260509130028 | 11 | 124 | 0.0 | 0.0 | 0.00 | 1.75 | 0.89 | 88 | 1002.8 |
| 20260509124530 | 11 | 124 | 0.0 | 0.0 | 0.00 | 1.75 | 0.89 | 88 | 1003.0 |
| 20260509123021 | 10 | 124 | 0.0 | 0.0 | 0.00 | 1.75 | 0.89 | 88 | 1003.1 |
| 20260509121524 | 10 | 124 | 0.0 | 0.0 | 0.00 | 1.75 | 0.89 | 88 | 1003.2 |